Tracking 35331 objects as of 14-Sep-2026
HD Live streaming from Space Station
objects crossing your sky now

THORAD AGENA D DEB

Track THORAD AGENA D DEB now!
10-day predictions


NORAD ID: 42524
Int'l Code: 1970-025SE
Launch date: April 8, 1970
Source: United States (US)
Launch site: AIR FORCE WESTERN TEST RANGE (AFWTR)

Note: This is SATELLITE DEBRIS
Your satellite tracking list
Your tracking list is empty




NASA's NSSDC Master Catalog

Two Line Element Set (TLE):
1 42524U 70025SE  26256.46927503  .00000507  00000-0  61128-3 0  9991
2 42524  99.7925 321.8972 0029006 327.1643  46.9428 13.71653981234540
Source of the keplerian elements: AFSPC